Location: Kouchibouguac National Park
(46.8081°N, 64.9088°W)
Time: 01:47:00
(UTC-03:00)

Amateur Radio Satellites - All Passes

Search period start: 22 October 2014 01:17
Search period end: 23 October 2014 01:17
Location: Kouchibouguac National Park, 46.8081°N, 64.9088°W

Satellite Date Start Highest point End Downlink Frequencies (MHz)
Time Altitude Azimuth
UOSAT-12 22 Oct 01:43:12 01:47:06 26° 246° (WSW) 01:50:57 437.025 FM, 437.400 FM
JAS-1B 22 Oct 01:54:05 01:59:02 22° 93° (E) 02:04:33 435.800 - 435.900 CW/SSB
Oscar 19 22 Oct 02:09:17 02:13:36 27° 94° (E) 02:17:53 437.125 CW, 437.150 USB
MaSat-1 22 Oct 02:11:02 02:14:49 34° 305° (NW) 02:18:16 437.345 MHz
AO-27 22 Oct 02:19:44 02:22:35 15° 88° (E) 02:25:24 436.795 MHz FM
RS-15 22 Oct 02:44:18 02:54:07 36° 338° (NNW) 03:04:07 29.354 - 29.394 USB, Beacon 29.352 USB
Oscar 16 22 Oct 02:53:59 02:59:07 67° 102° (ESE) 03:04:12 437.025 USB, Beacon 2401.1428
Uribyol 2 22 Oct 03:07:43 03:12:38 40° 98° (E) 03:17:29 436.500 FM
ITAMSAT 1 22 Oct 03:12:52 03:17:49 41° 98° (E) 03:22:44 435.822 SSB
Gurwin Techsat 1B 22 Oct 03:13:49 03:18:06 24° 92° (E) 03:22:21 435.225 FM
AO-Echo 22 Oct 03:15:20 03:20:34 58° 101° (E) 03:25:49 ?
TMSAT-1 22 Oct 03:27:14 03:31:29 24° 92° (E) 03:35:41 436.925 FM
AO-7 22 Oct 03:41:59 03:43:13 10° 82° (E) 03:44:26 29.400 - 29.500 MHz
JAS-1B 22 Oct 03:43:48 03:50:06 73° 288° (WNW) 03:57:35 435.800 - 435.900 CW/SSB
Oscar 19 22 Oct 03:48:16 03:53:07 44° 292° (WNW) 03:57:56 437.125 CW, 437.150 USB
AO-27 22 Oct 03:57:29 04:02:45 82° 286° (WNW) 04:07:59 436.795 MHz FM
OPAL 22 Oct 03:59:27 04:02:51 18° 56° (NE) 04:06:15 ?
Sapphire 22 Oct 04:34:16 04:38:42 27° 109° (ESE) 04:43:10 437.095 MHz 1200 baud AX-25 AFSK
Oscar 16 22 Oct 04:34:23 04:37:58 20° 301° (WNW) 04:41:34 437.025 USB, Beacon 2401.1428
Uribyol 2 22 Oct 04:47:26 04:52:00 31° 296° (WNW) 04:56:32 436.500 FM
ITAMSAT 1 22 Oct 04:52:39 04:57:10 30° 296° (WNW) 05:01:41 435.822 SSB
Gurwin Techsat 1B 22 Oct 04:53:12 04:58:21 52° 291° (WNW) 05:03:28 435.225 FM
AO-Echo 22 Oct 04:54:51 04:58:57 24° 299° (WNW) 05:03:05 ?
PCSat 22 Oct 04:56:22 05:01:27 43° 114° (ESE) 05:06:33 145.825 MHz
Uosat F 22 Oct 04:58:04 05:02:08 24° 93° (E) 05:06:10 435.120 FM
RS-15 22 Oct 05:00:53 05:10:27 32° 13° (NNE) 05:20:15 29.354 - 29.394 USB, Beacon 29.352 USB
TMSAT-1 22 Oct 05:06:32 05:11:42 52° 291° (WNW) 05:16:49 436.925 FM
JAS-2 22 Oct 05:23:42 05:29:03 20° 86° (E) 05:34:27 435.800 - 435.900 CW/SSB, 435.910 FM
AO-7 22 Oct 05:29:43 05:37:53 56° 103° (ESE) 05:46:01 29.400 - 29.500 MHz
OPAL 22 Oct 05:36:01 05:41:11 77° 254° (WSW) 05:46:19 ?
JAS-1B 22 Oct 05:36:32 05:39:58 15° 307° (NW) 05:43:38 435.800 - 435.900 CW/SSB
AO-27 22 Oct 05:38:48 05:41:27 14° 305° (NW) 05:44:07 436.795 MHz FM
STRAND 1 22 Oct 05:39:10 05:42:05 16° 56° (NE) 05:45:01 ?
Sapphire 22 Oct 06:16:30 06:21:49 55° 309° (NW) 06:27:10 437.095 MHz 1200 baud AX-25 AFSK
Uosat F 22 Oct 06:36:18 06:41:10 48° 291° (WNW) 06:46:00 435.120 FM
Hamsat 22 Oct 06:37:22 06:41:07 31° 96° (E) 06:44:51 145.90 MHz
PCSat 22 Oct 06:39:57 06:44:57 37° 314° (NW) 06:49:59 145.825 MHz
JAS-2 22 Oct 07:07:17 07:14:59 85° 105° (ESE) 07:22:53 435.800 - 435.900 CW/SSB, 435.910 FM
RS-15 22 Oct 07:14:31 07:25:31 62° 44° (NE) 07:36:56 29.354 - 29.394 USB, Beacon 29.352 USB
STRAND 1 22 Oct 07:15:26 07:20:34 88° 255° (WSW) 07:25:46 ?
OPAL 22 Oct 07:19:55 07:20:52 10° 272° (W) 07:21:49 ?
AO-7 22 Oct 07:22:54 07:30:26 41° 303° (WNW) 07:37:59 29.400 - 29.500 MHz
Sapphire 22 Oct 08:03:18 08:06:29 16° 331° (NNW) 08:09:41 437.095 MHz 1200 baud AX-25 AFSK
Hamsat 22 Oct 08:13:27 08:16:59 27° 293° (WNW) 08:20:31 145.90 MHz
SO-67 22 Oct 08:24:59 08:28:26 67° 101° (E) 08:31:51 435.3500 MHz FM
PCSat 22 Oct 08:27:54 08:30:01 12° 338° (NNW) 08:32:08 145.825 MHz
JAS-2 22 Oct 08:53:17 08:59:13 26° 303° (WNW) 09:05:20 435.800 - 435.900 CW/SSB, 435.910 FM
STRAND 1 22 Oct 08:58:26 09:00:31 12° 273° (W) 09:02:36 ?
Saudisat 1A 22 Oct 09:18:07 09:22:29 73° 124° (SE) 09:26:54 436.775 MHz
AO-7 22 Oct 09:18:11 09:20:59 12° 327° (NNW) 09:23:47 29.400 - 29.500 MHz
RS-15 22 Oct 09:27:15 09:37:40 48° 248° (WSW) 09:48:31 29.354 - 29.394 USB, Beacon 29.352 USB
HO-68 22 Oct 09:29:57 09:36:09 30° 94° (E) 09:42:18 435.675 MHz FM
Oscar 11 22 Oct 10:17:45 10:21:08 22° 93° (E) 10:24:29 145.825 FM, Beacon 2401.500 USB
MaSat-1 22 Oct 10:19:07 10:21:54 85° 243° (WSW) 10:24:24 437.345 MHz
ZACube-1 22 Oct 10:58:35 11:02:11 25° 94° (E) 11:05:41 437.345 MHz
Saudisat 1A 22 Oct 10:59:07 11:02:32 22° 325° (NW) 11:05:58 436.775 MHz
UKube-1 22 Oct 11:08:55 11:13:20 77° 104° (ESE) 11:17:41 145.840 MHz, 145.915 MHz
HO-68 22 Oct 11:17:12 11:24:16 61° 293° (WNW) 11:31:18 435.675 MHz FM
Sapphire 22 Oct 11:35:59 11:38:36 13° 25° (NNE) 11:41:13 437.095 MHz 1200 baud AX-25 AFSK
FUNcube-1 22 Oct 11:43:36 11:47:56 74° 102° (ESE) 11:52:07 145.950 - 145.970 MHz USB
Oscar 11 22 Oct 11:53:26 11:57:28 39° 291° (WNW) 12:01:28 145.825 FM, Beacon 2401.500 USB
PCSat 22 Oct 11:58:30 12:02:05 17° 31° (NNE) 12:05:38 145.825 MHz
ZACube-1 22 Oct 12:34:45 12:38:39 34° 292° (WNW) 12:42:27 437.345 MHz
Oscar 16 22 Oct 12:36:29 12:40:12 20° 60° (ENE) 12:43:54 437.025 USB, Beacon 2401.1428
JAS-1B 22 Oct 12:44:44 12:49:04 22° 58° (ENE) 12:53:19 435.800 - 435.900 CW/SSB
UKube-1 22 Oct 12:46:43 12:48:56 14° 302° (WNW) 12:51:09 145.840 MHz, 145.915 MHz
Uribyol 2 22 Oct 12:52:25 12:54:56 14° 54° (NE) 12:57:27 436.500 FM
AO-Echo 22 Oct 12:55:19 12:58:05 15° 56° (ENE) 13:00:54 ?
ITAMSAT 1 22 Oct 12:57:32 13:00:12 14° 55° (NE) 13:02:52 435.822 SSB
HO-68 22 Oct 13:06:46 13:10:36 15° 315° (NW) 13:14:26 435.675 MHz FM
KITSAT 1 22 Oct 13:11:17 13:19:01 52° 115° (ESE) 13:26:46 435.175 FM
Sapphire 22 Oct 13:18:19 13:23:31 43° 48° (NE) 13:28:41 437.095 MHz 1200 baud AX-25 AFSK
FUNcube-1 22 Oct 13:21:35 13:23:43 14° 301° (WNW) 13:25:49 145.950 - 145.970 MHz USB
Oscar 19 22 Oct 13:28:48 13:33:47 52° 70° (ENE) 13:38:47 437.125 CW, 437.150 USB
AO-27 22 Oct 13:40:05 13:44:35 31° 64° (ENE) 13:49:08 436.795 MHz FM
PCSat 22 Oct 13:41:08 13:46:34 66° 54° (NE) 13:51:57 145.825 MHz
Oscar 16 22 Oct 14:13:57 14:19:05 65° 258° (WSW) 14:24:14 437.025 USB, Beacon 2401.1428
ISS 22 Oct 14:15:51 14:18:39 25° 140° (SE) 14:21:28 145.800 FM
SO-50 22 Oct 14:17:46 14:22:08 52° 121° (ESE) 14:26:39 436.795 FM
Uribyol 2 22 Oct 14:28:22 14:33:35 79° 73° (ENE) 14:38:50 436.500 FM
AO-Echo 22 Oct 14:31:15 14:36:07 86° 256° (WSW) 14:41:12 ?
JAS-1B 22 Oct 14:33:26 14:39:24 62° 258° (WSW) 14:45:02 435.800 - 435.900 CW/SSB
ITAMSAT 1 22 Oct 14:33:41 14:38:53 83° 74° (ENE) 14:44:09 435.822 SSB
Gurwin Techsat 1B 22 Oct 14:37:33 14:42:38 49° 69° (ENE) 14:47:46 435.225 FM
AO-7 22 Oct 14:41:42 14:48:08 26° 49° (NE) 14:54:34 29.400 - 29.500 MHz
TMSAT-1 22 Oct 14:50:36 14:55:41 48° 69° (ENE) 15:00:47 436.925 FM
Sapphire 22 Oct 15:01:58 15:06:51 35° 248° (WSW) 15:11:43 437.095 MHz 1200 baud AX-25 AFSK
KITSAT 1 22 Oct 15:06:49 15:14:33 48° 317° (NW) 15:22:21 435.175 FM
Oscar 19 22 Oct 15:09:23 15:13:25 23° 268° (W) 15:17:29 437.125 CW, 437.150 USB
AO-27 22 Oct 15:19:04 15:23:58 41° 262° (W) 15:28:55 436.795 MHz FM
PCSat 22 Oct 15:25:27 15:29:30 22° 253° (WSW) 15:33:31 145.825 MHz
JAS-2 22 Oct 15:43:17 15:45:06 11° 44° (NE) 15:46:59 435.800 - 435.900 CW/SSB, 435.910 FM
ISS 22 Oct 15:51:49 15:55:08 65° 338° (NNW) 15:58:29 145.800 FM
UOSAT-12 22 Oct 15:56:06 16:00:34 48° 120° (ESE) 16:05:07 437.025 FM, 437.400 FM
SO-50 22 Oct 15:59:01 16:02:58 28° 322° (NW) 16:07:01 436.795 FM
Saudisat 1A 22 Oct 16:03:05 16:06:44 24° 37° (NE) 16:10:22 436.775 MHz
Oscar 10/S400 22 Oct 16:03:09 16:20:13 41° 159° (SSE) 16:57:59 145.825 - 145.975 CW/USB, Beacon 145.810 USB
Uribyol 2 22 Oct 16:10:42 16:13:41 15° 272° (W) 16:16:40 436.500 FM
Uosat F 22 Oct 16:13:55 16:18:40 45° 68° (ENE) 16:23:27 435.120 FM
AO-Echo 22 Oct 16:14:18 16:15:44 11° 275° (W) 16:17:10 ?
ITAMSAT 1 22 Oct 16:16:17 16:19:03 14° 272° (W) 16:21:50 435.822 SSB
Gurwin Techsat 1B 22 Oct 16:18:32 16:22:52 25° 267° (W) 16:27:13 435.225 FM
TMSAT-1 22 Oct 16:31:28 16:35:50 26° 267° (W) 16:40:14 436.925 FM
AO-7 22 Oct 16:31:40 16:39:58 89° 250° (WSW) 16:48:19 29.400 - 29.500 MHz
KITSAT 1 22 Oct 17:06:15 17:12:13 22° 344° (NNW) 17:18:11 435.175 FM
JAS-2 22 Oct 17:22:43 17:28:25 50° 66° (ENE) 17:34:54 435.800 - 435.900 CW/SSB, 435.910 FM
ISS 22 Oct 17:29:06 17:32:12 34° 358° (N) 17:35:18 145.800 FM
Hamsat 22 Oct 17:33:27 17:37:13 32° 68° (ENE) 17:40:58 145.90 MHz
UOSAT-12 22 Oct 17:36:46 17:40:55 31° 320° (NW) 17:45:08 437.025 FM, 437.400 FM
Saudisat 1A 22 Oct 17:42:17 17:46:39 60° 237° (WSW) 17:51:00 436.775 MHz
OPAL 22 Oct 17:43:52 17:47:36 21° 94° (E) 17:51:17 ?
SO-50 22 Oct 17:44:07 17:45:07 11° 346° (NNW) 17:46:08 436.795 FM
Uosat F 22 Oct 17:53:29 17:57:38 26° 266° (W) 18:01:50 435.120 FM
AO-7 22 Oct 18:27:58 18:33:51 21° 271° (W) 18:39:47 29.400 - 29.500 MHz
SO-67 22 Oct 19:00:22 19:03:29 33° 71° (ENE) 19:06:37 435.3500 MHz FM
KITSAT 1 22 Oct 19:05:05 19:10:59 21° 15° (NNE) 19:16:53 435.175 FM
ISS 22 Oct 19:06:02 19:09:20 52° 18° (NNE) 19:12:37 145.800 FM
JAS-2 22 Oct 19:08:41 19:13:50 31° 269° (W) 19:19:36 435.800 - 435.900 CW/SSB, 435.910 FM
Hamsat 22 Oct 19:09:40 19:13:12 26° 266° (W) 19:16:44 145.90 MHz
UOSAT-12 22 Oct 19:21:10 19:22:35 11° 343° (NNW) 19:24:01 437.025 FM, 437.400 FM
OPAL 22 Oct 19:21:57 19:26:49 54° 292° (WNW) 19:31:38 ?
STRAND 1 22 Oct 19:23:40 19:27:55 25° 93° (E) 19:32:08 ?
HO-68 22 Oct 20:01:53 20:08:03 33° 58° (ENE) 20:14:14 435.675 MHz FM
UKube-1 22 Oct 20:33:52 20:35:46 13° 57° (ENE) 20:37:39 145.840 MHz, 145.915 MHz
SO-67 22 Oct 20:34:19 20:36:35 17° 268° (W) 20:38:52 435.3500 MHz FM
ISS 22 Oct 20:42:52 20:45:58 35° 217° (SW) 20:49:02 145.800 FM
KITSAT 1 22 Oct 21:00:59 21:08:43 46° 42° (NE) 21:16:24 435.175 FM
STRAND 1 22 Oct 21:02:23 21:07:20 47° 292° (WNW) 21:12:14 ?
SO-50 22 Oct 21:06:26 21:10:17 23° 35° (NE) 21:14:10 436.795 FM
FUNcube-1 22 Oct 21:09:26 21:11:05 12° 58° (ENE) 21:12:44 145.950 - 145.970 MHz USB
Oscar 11 22 Oct 21:15:36 21:19:11 26° 66° (ENE) 21:22:46 145.825 FM, Beacon 2401.500 USB
RS-15 22 Oct 21:45:16 21:53:10 24° 101° (E) 22:01:01 29.354 - 29.394 USB, Beacon 29.352 USB
HO-68 22 Oct 21:48:19 21:55:23 61° 257° (WSW) 22:02:30 435.675 MHz FM
ZACube-1 22 Oct 21:57:28 22:01:31 32° 67° (ENE) 22:05:33 437.345 MHz
UKube-1 22 Oct 22:06:57 22:11:18 85° 256° (WSW) 22:15:42 145.840 MHz, 145.915 MHz
FUNcube-1 22 Oct 22:42:09 22:46:46 84° 76° (ENE) 22:51:19 145.950 - 145.970 MHz USB
UOSAT-12 22 Oct 22:43:22 22:46:59 21° 33° (NNE) 22:50:33 437.025 FM, 437.400 FM
SO-50 22 Oct 22:46:32 22:51:23 78° 235° (SW) 22:56:15 436.795 FM
Oscar 11 22 Oct 22:51:16 22:55:14 35° 263° (W) 22:59:13 145.825 FM, Beacon 2401.500 USB
KITSAT 1 22 Oct 22:56:32 23:04:21 55° 245° (WSW) 23:12:07 435.175 FM
ZACube-1 22 Oct 23:33:48 23:37:53 31° 265° (W) 23:41:57 437.345 MHz
HO-68 22 Oct 23:43:06 23:44:35 11° 277° (W) 23:46:03 435.675 MHz FM
RS-15 22 Oct 23:52:51 00:03:51 85° 124° (SE) 00:14:50 29.354 - 29.394 USB, Beacon 29.352 USB
MaSat-1 23 Oct 00:00:07 00:02:33 15° 107° (ESE) 00:04:52 437.345 MHz
FUNcube-1 23 Oct 00:22:07 00:23:43 12° 273° (W) 00:25:19 145.950 - 145.970 MHz USB
UOSAT-12 23 Oct 00:23:00 00:27:46 87° 235° (SW) 00:32:26 437.025 FM, 437.400 FM
SO-50 23 Oct 00:29:33 00:31:10 12° 253° (WSW) 00:32:46 436.795 FM
KITSAT 1 23 Oct 00:56:56 00:57:55 10° 265° (W) 00:58:55 435.175 FM
